STARLINK-36724, 67914

Orbit data source: Space-Track

STARLINK-36724, 67914 is a payload satellite owned by SpaceX/Seattle (US) in LEO that was launched on Sun, 22 Feb 2026 UTC via an FALCON 9 launch vehicle from the Air Force Eastern Test Range (AFETR). Payload-class satellites include a variety of spacecraft equipped with specific instruments for various scientific and technological missions. These include communications satellites like Starlink; space stations such as the ISS; scientific satellites like the Hubble; Earth observation satellites from companies like Planet Labs, Umbra, and HawkEye 360; GPS; miniature CubeSats for education and research; and military/defense satellites.

Loading next visibility...
Identifier
67914, 2026-036L
Orbit
LEO
Country
Flag of USUS
Related business
Manufacturer
SpaceX/Seattle
Mission
Operational Commercial Communications
Bus & Motor
STARLINK V2MO, Unknown motor
Mass
575 kg wet, ~530 kg dry
Launch date (UTC)
2026-02-22 (4 months ago)
Launch vehicle
FALCON 9
Launch site
Air Force Eastern Test Range (AFETR)
Object type
Payload
Rocket body
Debris
Shape & HBR
Box + 2 Pan, 17.7 m
Radar Cross Section
36.964 m², Large (>1 m²)

Expand to show TLE details & history
Last TLE update: 20 hours ago

TLE from 20 hours ago
0 STARLINK-36724
1 67914U 26036L   26171.01390062  .00027977  00000-0  10217-2 0  9997
2 67914  43.0004  27.1795 0001143 299.6919  60.3819 15.27601029 19375
Epoch: 2026-06-20T00:20Z
TLE epoch observation values (Epoch: 2026-06-20T00:20:01.013Z)
Latitude
-0.00001°
Longitude
113.94066°
Altitude
482.374 km
Speed
7.626 km/s
True Right ascension
01h 48m 43s
True Declination
0° 00' 00"
Sunlit
Object was in daylight at epoch
Visualization orbit readout
Latitude
Unknown
Longitude
Unknown
Altitude
Unknown
Speed
Unknown
Apparent Right ascension
Unknown
Apparent Declination
Unknown
Sunlit
N/A
Visualization observer readout
Local Sidereal Time
07:21:11
Azimuth
Unknown
Elevation
Unknown
Doppler factor
Unknown
Orbital elements
Apogee altitude
485.716 km
Perigee altitude
484.147 km
Semi-major axis
6,863.068 km
Eccentricity
0.00011
Inclination
43.0004°
RAAN
27.1795°
Arg. of periapsis
299.6919°
True anomaly
60.39329°
Mean anomaly
60.3819°
Eccentric anomaly
60.38759°
Mean motion
3.81738 °/min
Orbital period
94.31 mins
BSTAR
0.0010217
Loading maneuver chart data...
Computing Atmospheric mass density...
Loading historical data...
Loading historical data...
Loading historical data...
Loading historical data...
Loading historical data...
Loading historical data...
Loading historical data...

Documentation

Showing up to 5 results
|